owner,sensor,date,latitude,longitude,air_temperature,qcFlag 
WAVCIS,ioos:station:WAVCIS:CSI03:1,2009-04-01T00:00:00Z,29.4412,-92.0613,22.39,11111222 
WAVCIS,ioos:station:WAVCIS:CSI03:1,2009-04-01T01:00:00Z,29.4412,-92.0613,21.84,11111222 
WAVCIS,ioos:station:WAVCIS:CSI03:1,2009-04-01T02:00:00Z,29.4412,-92.0613,21.31,11111222 
WAVCIS,ioos:station:WAVCIS:CSI03:1,2009-04-01T03:00:00Z,29.4412,-92.0613,20.55,11111222 
WAVCIS,ioos:station:WAVCIS:CSI03:1,2009-04-01T04:00:00Z,29.4412,-92.0613,19.77,11111222 
WAVCIS,ioos:station:WAVCIS:CSI03:1,2009-04-01T05:00:00Z,29.4412,-92.0613,18.99,11111222 
WAVCIS,ioos:station:WAVCIS:CSI03:1,2009-04-01T06:00:00Z,29.4412,-92.0613,18.65,11111222 
WAVCIS,ioos:station:WAVCIS:CSI03:1,2009-04-01T07:00:00Z,29.4412,-92.0613,18.17,11111222 
WAVCIS,ioos:station:WAVCIS:CSI03:1,2009-04-01T08:00:00Z,29.4412,-92.0613,17.84,11111222 
WAVCIS,ioos:station:WAVCIS:CSI03:1,2009-04-01T09:00:00Z,29.4412,-92.0613,17.15,11111222 
WAVCIS,ioos:station:WAVCIS:CSI03:1,2009-04-01T10:00:00Z,29.4412,-92.0613,16.76,11111222 
WAVCIS,ioos:station:WAVCIS:CSI03:1,2009-04-01T11:00:00Z,29.4412,-92.0613,16.4,11111222 
WAVCIS,ioos:station:WAVCIS:CSI03:1,2009-04-01T12:00:00Z,29.4412,-92.0613,16.06,11111222 
WAVCIS,ioos:station:WAVCIS:CSI03:1,2009-04-01T13:00:00Z,29.4412,-92.0613,16.01,11111222 
WAVCIS,ioos:station:WAVCIS:CSI03:1,2009-04-01T14:00:00Z,29.4412,-92.0613,16.06,11111222 
WAVCIS,ioos:station:WAVCIS:CSI03:1,2009-04-01T15:00:00Z,29.4412,-92.0613,16.26,11111222 
WAVCIS,ioos:station:WAVCIS:CSI03:1,2009-04-01T16:00:00Z,29.4412,-92.0613,16.79,11111222 
WAVCIS,ioos:station:WAVCIS:CSI03:1,2009-04-01T17:00:00Z,29.4412,-92.0613,16.93,11111222 
WAVCIS,ioos:station:WAVCIS:CSI03:1,2009-04-01T18:00:00Z,29.4412,-92.0613,17.17,11111222 
WAVCIS,ioos:station:WAVCIS:CSI03:1,2009-04-01T19:00:00Z,29.4412,-92.0613,17.33,11111222 
WAVCIS,ioos:station:WAVCIS:CSI03:1,2009-04-01T20:00:00Z,29.4412,-92.0613,17.54,11111222 
WAVCIS,ioos:station:WAVCIS:CSI03:1,2009-04-01T21:00:00Z,29.4412,-92.0613,17.75,11111222 
WAVCIS,ioos:station:WAVCIS:CSI03:1,2009-04-01T22:00:00Z,29.4412,-92.0613,18.4,11111222 
WAVCIS,ioos:station:WAVCIS:CSI03:1,2009-04-01T23:00:00Z,29.4412,-92.0613,18.59,11111222 
WAVCIS,ioos:station:WAVCIS:CSI03:1,2009-04-02T00:00:00Z,29.4412,-92.0613,18.74,11111222 
WAVCIS,ioos:station:WAVCIS:CSI03:1,2009-04-02T01:00:00Z,29.4412,-92.0613,18.93,11111222 
WAVCIS,ioos:station:WAVCIS:CSI03:1,2009-04-02T02:00:00Z,29.4412,-92.0613,19.17,11111222 
WAVCIS,ioos:station:WAVCIS:CSI03:1,2009-04-02T03:00:00Z,29.4412,-92.0613,18.94,11111222 
WAVCIS,ioos:station:WAVCIS:CSI03:1,2009-04-02T04:00:00Z,29.4412,-92.0613,18.58,11111222 
WAVCIS,ioos:station:WAVCIS:CSI03:1,2009-04-02T05:00:00Z,29.4412,-92.0613,18.7,11111222 
WAVCIS,ioos:station:WAVCIS:CSI03:1,2009-04-02T06:00:00Z,29.4412,-92.0613,19.14,11111222 
WAVCIS,ioos:station:WAVCIS:CSI03:1,2009-04-02T07:00:00Z,29.4412,-92.0613,20.18,11111222 
WAVCIS,ioos:station:WAVCIS:CSI03:1,2009-04-02T08:00:00Z,29.4412,-92.0613,22.47,11111222 
WAVCIS,ioos:station:WAVCIS:CSI03:1,2009-04-02T09:00:00Z,29.4412,-92.0613,21.3,11111222 
WAVCIS,ioos:station:WAVCIS:CSI03:1,2009-04-02T10:00:00Z,29.4412,-92.0613,21.87,11111222 
WAVCIS,ioos:station:WAVCIS:CSI03:1,2009-04-02T11:00:00Z,29.4412,-92.0613,22.38,11111222 
WAVCIS,ioos:station:WAVCIS:CSI03:1,2009-04-02T12:00:00Z,29.4412,-92.0613,24.72,11111222 
WAVCIS,ioos:station:WAVCIS:CSI03:1,2009-04-02T13:00:00Z,29.4412,-92.0613,25.77,11111222 
WAVCIS,ioos:station:WAVCIS:CSI03:1,2009-04-02T14:00:00Z,29.4412,-92.0613,24.71,11111222 
WAVCIS,ioos:station:WAVCIS:CSI03:1,2009-04-02T15:00:00Z,29.4412,-92.0613,23.55,11111222 
WAVCIS,ioos:station:WAVCIS:CSI03:1,2009-04-02T16:00:00Z,29.4412,-92.0613,23.0,11111222 
WAVCIS,ioos:station:WAVCIS:CSI03:1,2009-04-02T17:00:00Z,29.4412,-92.0613,17.02,11111222 
WAVCIS,ioos:station:WAVCIS:CSI03:1,2009-04-02T18:00:00Z,29.4412,-92.0613,16.95,11111222 
WAVCIS,ioos:station:WAVCIS:CSI03:1,2009-04-02T19:00:00Z,29.4412,-92.0613,17.94,11111222 
WAVCIS,ioos:station:WAVCIS:CSI03:1,2009-04-02T20:00:00Z,29.4412,-92.0613,19.83,11111222 
WAVCIS,ioos:station:WAVCIS:CSI03:1,2009-04-02T21:00:00Z,29.4412,-92.0613,20.64,11111222 
WAVCIS,ioos:station:WAVCIS:CSI03:1,2009-04-02T22:00:00Z,29.4412,-92.0613,20.86,11111222 
WAVCIS,ioos:station:WAVCIS:CSI03:1,2009-04-02T23:00:00Z,29.4412,-92.0613,21.64,11111222 
WAVCIS,ioos:station:WAVCIS:CSI03:1,2009-04-03T00:00:00Z,29.4412,-92.0613,21.32,11111222 
WAVCIS,ioos:station:WAVCIS:CSI03:1,2009-04-03T01:00:00Z,29.4412,-92.0613,21.71,11111222 
WAVCIS,ioos:station:WAVCIS:CSI03:1,2009-04-03T02:00:00Z,29.4412,-92.0613,21.38,11111222 
WAVCIS,ioos:station:WAVCIS:CSI03:1,2009-04-03T03:00:00Z,29.4412,-92.0613,20.35,11111222 
WAVCIS,ioos:station:WAVCIS:CSI03:1,2009-04-03T04:00:00Z,29.4412,-92.0613,19.3,11111222 
WAVCIS,ioos:station:WAVCIS:CSI03:1,2009-04-03T05:00:00Z,29.4412,-92.0613,18.15,11111222 
WAVCIS,ioos:station:WAVCIS:CSI03:1,2009-04-03T06:00:00Z,29.4412,-92.0613,17.6,11111222 
WAVCIS,ioos:station:WAVCIS:CSI03:1,2009-04-03T07:00:00Z,29.4412,-92.0613,17.3,11111222 
WAVCIS,ioos:station:WAVCIS:CSI03:1,2009-04-03T08:00:00Z,29.4412,-92.0613,16.9,11111222 
WAVCIS,ioos:station:WAVCIS:CSI03:1,2009-04-03T09:00:00Z,29.4412,-92.0613,16.52,11111222 
WAVCIS,ioos:station:WAVCIS:CSI03:1,2009-04-03T10:00:00Z,29.4412,-92.0613,15.7,11111222 
WAVCIS,ioos:station:WAVCIS:CSI03:1,2009-04-03T11:00:00Z,29.4412,-92.0613,14.6,11111222 
WAVCIS,ioos:station:WAVCIS:CSI03:1,2009-04-03T12:00:00Z,29.4412,-92.0613,13.72,11111222 
WAVCIS,ioos:station:WAVCIS:CSI03:1,2009-04-03T13:00:00Z,29.4412,-92.0613,13.52,11111222 
WAVCIS,ioos:station:WAVCIS:CSI03:1,2009-04-03T14:00:00Z,29.4412,-92.0613,13.56,11111222 
WAVCIS,ioos:station:WAVCIS:CSI03:1,2009-04-03T15:00:00Z,29.4412,-92.0613,13.55,11111222 
WAVCIS,ioos:station:WAVCIS:CSI03:1,2009-04-03T16:00:00Z,29.4412,-92.0613,14.17,11111222 
WAVCIS,ioos:station:WAVCIS:CSI03:1,2009-04-03T17:00:00Z,29.4412,-92.0613,14.96,11111222 
WAVCIS,ioos:station:WAVCIS:CSI03:1,2009-04-03T18:00:00Z,29.4412,-92.0613,16.16,11111222 
WAVCIS,ioos:station:WAVCIS:CSI03:1,2009-04-03T19:00:00Z,29.4412,-92.0613,17.67,11111222 
WAVCIS,ioos:station:WAVCIS:CSI03:1,2009-04-03T20:00:00Z,29.4412,-92.0613,17.52,11111222 
WAVCIS,ioos:station:WAVCIS:CSI03:1,2009-04-03T21:00:00Z,29.4412,-92.0613,18.19,11111222 
WAVCIS,ioos:station:WAVCIS:CSI03:1,2009-04-03T22:00:00Z,29.4412,-92.0613,18.53,11111222 
WAVCIS,ioos:station:WAVCIS:CSI03:1,2009-04-03T23:00:00Z,29.4412,-92.0613,18.86,11111222 
WAVCIS,ioos:station:WAVCIS:CSI03:1,2009-04-04T00:00:00Z,29.4412,-92.0613,18.3,11111222 
WAVCIS,ioos:station:WAVCIS:CSI03:1,2009-04-04T01:00:00Z,29.4412,-92.0613,17.75,11111222 
WAVCIS,ioos:station:WAVCIS:CSI03:1,2009-04-04T02:00:00Z,29.4412,-92.0613,17.84,11111222 
WAVCIS,ioos:station:WAVCIS:CSI03:1,2009-04-04T03:00:00Z,29.4412,-92.0613,17.53,11111222 
WAVCIS,ioos:station:WAVCIS:CSI03:1,2009-04-04T04:00:00Z,29.4412,-92.0613,17.78,11111222 
WAVCIS,ioos:station:WAVCIS:CSI03:1,2009-04-04T05:00:00Z,29.4412,-92.0613,17.94,11111222 
WAVCIS,ioos:station:WAVCIS:CSI03:1,2009-04-04T06:00:00Z,29.4412,-92.0613,18.92,11111222 
WAVCIS,ioos:station:WAVCIS:CSI03:1,2009-04-04T07:00:00Z,29.4412,-92.0613,18.32,11111222 
WAVCIS,ioos:station:WAVCIS:CSI03:1,2009-04-04T08:00:00Z,29.4412,-92.0613,18.07,11111222 
WAVCIS,ioos:station:WAVCIS:CSI03:1,2009-04-04T09:00:00Z,29.4412,-92.0613,18.19,11111222 
WAVCIS,ioos:station:WAVCIS:CSI03:1,2009-04-04T10:00:00Z,29.4412,-92.0613,18.49,11111222 
WAVCIS,ioos:station:WAVCIS:CSI03:1,2009-04-04T11:00:00Z,29.4412,-92.0613,18.78,11111222 
WAVCIS,ioos:station:WAVCIS:CSI03:1,2009-04-04T12:00:00Z,29.4412,-92.0613,18.81,11111222 
WAVCIS,ioos:station:WAVCIS:CSI03:1,2009-04-04T13:00:00Z,29.4412,-92.0613,19.05,11111222 
WAVCIS,ioos:station:WAVCIS:CSI03:1,2009-04-04T14:00:00Z,29.4412,-92.0613,19.17,11111222 
WAVCIS,ioos:station:WAVCIS:CSI03:1,2009-04-04T15:00:00Z,29.4412,-92.0613,19.16,11111222 
WAVCIS,ioos:station:WAVCIS:CSI03:1,2009-04-04T16:00:00Z,29.4412,-92.0613,19.52,11111222 
WAVCIS,ioos:station:WAVCIS:CSI03:1,2009-04-04T17:00:00Z,29.4412,-92.0613,19.83,11111222 
WAVCIS,ioos:station:WAVCIS:CSI03:1,2009-04-04T18:00:00Z,29.4412,-92.0613,20.04,11111222 
WAVCIS,ioos:station:WAVCIS:CSI03:1,2009-04-04T19:00:00Z,29.4412,-92.0613,20.25,11111222 
WAVCIS,ioos:station:WAVCIS:CSI03:1,2009-04-04T20:00:00Z,29.4412,-92.0613,20.46,11111222 
WAVCIS,ioos:station:WAVCIS:CSI03:1,2009-04-04T21:00:00Z,29.4412,-92.0613,20.53,11111222 
WAVCIS,ioos:station:WAVCIS:CSI03:1,2009-04-04T22:00:00Z,29.4412,-92.0613,20.46,11111222 
WAVCIS,ioos:station:WAVCIS:CSI03:1,2009-04-04T23:00:00Z,29.4412,-92.0613,20.46,11111222 
WAVCIS,ioos:station:WAVCIS:CSI03:1,2009-04-05T00:00:00Z,29.4412,-92.0613,20.52,11111222 
WAVCIS,ioos:station:WAVCIS:CSI03:1,2009-04-05T01:00:00Z,29.4412,-92.0613,20.49,11111222 
WAVCIS,ioos:station:WAVCIS:CSI03:1,2009-04-05T02:00:00Z,29.4412,-92.0613,20.47,11111222 
WAVCIS,ioos:station:WAVCIS:CSI03:1,2009-04-05T03:00:00Z,29.4412,-92.0613,20.55,11111222 
WAVCIS,ioos:station:WAVCIS:CSI03:1,2009-04-05T04:00:00Z,29.4412,-92.0613,20.63,11111222 
WAVCIS,ioos:station:WAVCIS:CSI03:1,2009-04-05T05:00:00Z,29.4412,-92.0613,20.63,11111222 
WAVCIS,ioos:station:WAVCIS:CSI03:1,2009-04-05T06:00:00Z,29.4412,-92.0613,20.72,11111222 
WAVCIS,ioos:station:WAVCIS:CSI03:1,2009-04-05T07:00:00Z,29.4412,-92.0613,20.79,11111222 
WAVCIS,ioos:station:WAVCIS:CSI03:1,2009-04-05T08:00:00Z,29.4412,-92.0613,21.05,11111222 
WAVCIS,ioos:station:WAVCIS:CSI03:1,2009-04-05T09:00:00Z,29.4412,-92.0613,21.73,11111222 
WAVCIS,ioos:station:WAVCIS:CSI03:1,2009-04-05T10:00:00Z,29.4412,-92.0613,21.22,11111222 
WAVCIS,ioos:station:WAVCIS:CSI03:1,2009-04-05T11:00:00Z,29.4412,-92.0613,20.75,11111222 
WAVCIS,ioos:station:WAVCIS:CSI03:1,2009-04-05T12:00:00Z,29.4412,-92.0613,20.77,11111222 
WAVCIS,ioos:station:WAVCIS:CSI03:1,2009-04-05T13:00:00Z,29.4412,-92.0613,21.39,11111222 
WAVCIS,ioos:station:WAVCIS:CSI03:1,2009-04-05T14:00:00Z,29.4412,-92.0613,21.44,11111222 
WAVCIS,ioos:station:WAVCIS:CSI03:1,2009-04-05T15:00:00Z,29.4412,-92.0613,21.54,11111222 
WAVCIS,ioos:station:WAVCIS:CSI03:1,2009-04-05T16:00:00Z,29.4412,-92.0613,21.42,11111222 
WAVCIS,ioos:station:WAVCIS:CSI03:1,2009-04-05T17:00:00Z,29.4412,-92.0613,21.72,11111222 
WAVCIS,ioos:station:WAVCIS:CSI03:1,2009-04-05T18:00:00Z,29.4412,-92.0613,21.47,11111222 
WAVCIS,ioos:station:WAVCIS:CSI03:1,2009-04-05T19:00:00Z,29.4412,-92.0613,21.59,11111222 
WAVCIS,ioos:station:WAVCIS:CSI03:1,2009-04-05T20:00:00Z,29.4412,-92.0613,21.73,11111222 
WAVCIS,ioos:station:WAVCIS:CSI03:1,2009-04-05T21:00:00Z,29.4412,-92.0613,23.2,11111222 
WAVCIS,ioos:station:WAVCIS:CSI03:1,2009-04-05T22:00:00Z,29.4412,-92.0613,22.81,11111222 
WAVCIS,ioos:station:WAVCIS:CSI03:1,2009-04-05T23:00:00Z,29.4412,-92.0613,23.0,11111222 
WAVCIS,ioos:station:WAVCIS:CSI03:1,2009-04-06T00:00:00Z,29.4412,-92.0613,24.57,11111222 
WAVCIS,ioos:station:WAVCIS:CSI03:1,2009-04-06T01:00:00Z,29.4412,-92.0613,24.15,11111222 
WAVCIS,ioos:station:WAVCIS:CSI03:1,2009-04-06T02:00:00Z,29.4412,-92.0613,22.78,11111222 
WAVCIS,ioos:station:WAVCIS:CSI03:1,2009-04-06T03:00:00Z,29.4412,-92.0613,20.84,11111222 
WAVCIS,ioos:station:WAVCIS:CSI03:1,2009-04-06T04:00:00Z,29.4412,-92.0613,19.36,11111222 
WAVCIS,ioos:station:WAVCIS:CSI03:1,2009-04-06T05:00:00Z,29.4412,-92.0613,18.02,11111222 
WAVCIS,ioos:station:WAVCIS:CSI03:1,2009-04-06T06:00:00Z,29.4412,-92.0613,16.67,11111222 
WAVCIS,ioos:station:WAVCIS:CSI03:1,2009-04-06T07:00:00Z,29.4412,-92.0613,15.19,11111222 
WAVCIS,ioos:station:WAVCIS:CSI03:1,2009-04-06T08:00:00Z,29.4412,-92.0613,13.79,11111222 
WAVCIS,ioos:station:WAVCIS:CSI03:1,2009-04-06T09:00:00Z,29.4412,-92.0613,12.5,11111222 
WAVCIS,ioos:station:WAVCIS:CSI03:1,2009-04-06T10:00:00Z,29.4412,-92.0613,10.73,11111222 
WAVCIS,ioos:station:WAVCIS:CSI03:1,2009-04-06T11:00:00Z,29.4412,-92.0613,10.42,11111222 
WAVCIS,ioos:station:WAVCIS:CSI03:1,2009-04-06T12:00:00Z,29.4412,-92.0613,9.99,11111222 
WAVCIS,ioos:station:WAVCIS:CSI03:1,2009-04-06T13:00:00Z,29.4412,-92.0613,9.87,11111222 
WAVCIS,ioos:station:WAVCIS:CSI03:1,2009-04-06T14:00:00Z,29.4412,-92.0613,10.01,11111222 
WAVCIS,ioos:station:WAVCIS:CSI03:1,2009-04-06T15:00:00Z,29.4412,-92.0613,10.21,11111222 
WAVCIS,ioos:station:WAVCIS:CSI03:1,2009-04-06T16:00:00Z,29.4412,-92.0613,10.62,11111222 
WAVCIS,ioos:station:WAVCIS:CSI03:1,2009-04-06T17:00:00Z,29.4412,-92.0613,10.99,11111222 
WAVCIS,ioos:station:WAVCIS:CSI03:1,2009-04-06T18:00:00Z,29.4412,-92.0613,11.96,11111222 
WAVCIS,ioos:station:WAVCIS:CSI03:1,2009-04-06T19:00:00Z,29.4412,-92.0613,13.31,11111222 
WAVCIS,ioos:station:WAVCIS:CSI03:1,2009-04-06T20:00:00Z,29.4412,-92.0613,14.08,11111222 
WAVCIS,ioos:station:WAVCIS:CSI03:1,2009-04-06T21:00:00Z,29.4412,-92.0613,14.46,11111222 
WAVCIS,ioos:station:WAVCIS:CSI03:1,2009-04-06T22:00:00Z,29.4412,-92.0613,15.11,11111222 
WAVCIS,ioos:station:WAVCIS:CSI03:1,2009-04-06T23:00:00Z,29.4412,-92.0613,15.65,11111222 
WAVCIS,ioos:station:WAVCIS:CSI03:1,2009-04-07T00:00:00Z,29.4412,-92.0613,15.7,11111222 
WAVCIS,ioos:station:WAVCIS:CSI03:1,2009-04-07T01:00:00Z,29.4412,-92.0613,15.34,11111222 
WAVCIS,ioos:station:WAVCIS:CSI03:1,2009-04-07T02:00:00Z,29.4412,-92.0613,14.89,11111222 
WAVCIS,ioos:station:WAVCIS:CSI03:1,2009-04-07T03:00:00Z,29.4412,-92.0613,14.52,11111222 
WAVCIS,ioos:station:WAVCIS:CSI03:1,2009-04-07T04:00:00Z,29.4412,-92.0613,13.74,11111222 
WAVCIS,ioos:station:WAVCIS:CSI03:1,2009-04-07T05:00:00Z,29.4412,-92.0613,13.15,11111222 
WAVCIS,ioos:station:WAVCIS:CSI03:1,2009-04-07T06:00:00Z,29.4412,-92.0613,12.86,11111222 
WAVCIS,ioos:station:WAVCIS:CSI03:1,2009-04-07T07:00:00Z,29.4412,-92.0613,12.28,11111222 
WAVCIS,ioos:station:WAVCIS:CSI03:1,2009-04-07T08:00:00Z,29.4412,-92.0613,11.81,11111222 
WAVCIS,ioos:station:WAVCIS:CSI03:1,2009-04-07T09:00:00Z,29.4412,-92.0613,11.43,11111222 
WAVCIS,ioos:station:WAVCIS:CSI03:1,2009-04-07T10:00:00Z,29.4412,-92.0613,10.69,11111222 
WAVCIS,ioos:station:WAVCIS:CSI03:1,2009-04-07T11:00:00Z,29.4412,-92.0613,9.73,11111222 
WAVCIS,ioos:station:WAVCIS:CSI03:1,2009-04-07T12:00:00Z,29.4412,-92.0613,9.16,11111222 
WAVCIS,ioos:station:WAVCIS:CSI03:1,2009-04-07T13:00:00Z,29.4412,-92.0613,9.46,11111222 
WAVCIS,ioos:station:WAVCIS:CSI03:1,2009-04-07T14:00:00Z,29.4412,-92.0613,9.4,11111222 
WAVCIS,ioos:station:WAVCIS:CSI03:1,2009-04-07T15:00:00Z,29.4412,-92.0613,9.71,11111222 
WAVCIS,ioos:station:WAVCIS:CSI03:1,2009-04-07T16:00:00Z,29.4412,-92.0613,9.95,11111222 
WAVCIS,ioos:station:WAVCIS:CSI03:1,2009-04-07T17:00:00Z,29.4412,-92.0613,10.43,11111222 
WAVCIS,ioos:station:WAVCIS:CSI03:1,2009-04-07T18:00:00Z,29.4412,-92.0613,11.23,11111222 
WAVCIS,ioos:station:WAVCIS:CSI03:1,2009-04-07T19:00:00Z,29.4412,-92.0613,12.07,11111222 
WAVCIS,ioos:station:WAVCIS:CSI03:1,2009-04-07T20:00:00Z,29.4412,-92.0613,12.69,11111222 
WAVCIS,ioos:station:WAVCIS:CSI03:1,2009-04-07T21:00:00Z,29.4412,-92.0613,13.5,11111222 
WAVCIS,ioos:station:WAVCIS:CSI03:1,2009-04-07T22:00:00Z,29.4412,-92.0613,14.5,11111222 
WAVCIS,ioos:station:WAVCIS:CSI03:1,2009-04-07T23:00:00Z,29.4412,-92.0613,15.27,11111222 
WAVCIS,ioos:station:WAVCIS:CSI03:1,2009-04-08T00:00:00Z,29.4412,-92.0613,15.47,11111222 
WAVCIS,ioos:station:WAVCIS:CSI03:1,2009-04-08T01:00:00Z,29.4412,-92.0613,15.75,11111222 
WAVCIS,ioos:station:WAVCIS:CSI03:1,2009-04-08T02:00:00Z,29.4412,-92.0613,16.02,11111222 
WAVCIS,ioos:station:WAVCIS:CSI03:1,2009-04-08T03:00:00Z,29.4412,-92.0613,16.23,11111222 
WAVCIS,ioos:station:WAVCIS:CSI03:1,2009-04-08T04:00:00Z,29.4412,-92.0613,16.23,11111222 
WAVCIS,ioos:station:WAVCIS:CSI03:1,2009-04-08T05:00:00Z,29.4412,-92.0613,16.32,11111222 
WAVCIS,ioos:station:WAVCIS:CSI03:1,2009-04-08T06:00:00Z,29.4412,-92.0613,16.44,11111222 
WAVCIS,ioos:station:WAVCIS:CSI03:1,2009-04-08T07:00:00Z,29.4412,-92.0613,16.57,11111222 
WAVCIS,ioos:station:WAVCIS:CSI03:1,2009-04-08T08:00:00Z,29.4412,-92.0613,16.53,11111222 
WAVCIS,ioos:station:WAVCIS:CSI03:1,2009-04-08T09:00:00Z,29.4412,-92.0613,16.4,11111222 
WAVCIS,ioos:station:WAVCIS:CSI03:1,2009-04-08T10:00:00Z,29.4412,-92.0613,16.61,11111222 
WAVCIS,ioos:station:WAVCIS:CSI03:1,2009-04-08T11:00:00Z,29.4412,-92.0613,16.87,11111222 
WAVCIS,ioos:station:WAVCIS:CSI03:1,2009-04-08T12:00:00Z,29.4412,-92.0613,17.49,11111222 
WAVCIS,ioos:station:WAVCIS:CSI03:1,2009-04-08T13:00:00Z,29.4412,-92.0613,18.15,11111222 
WAVCIS,ioos:station:WAVCIS:CSI03:1,2009-04-08T14:00:00Z,29.4412,-92.0613,19.15,11111222 
WAVCIS,ioos:station:WAVCIS:CSI03:1,2009-04-08T15:00:00Z,29.4412,-92.0613,19.19,11111222 
WAVCIS,ioos:station:WAVCIS:CSI03:1,2009-04-08T16:00:00Z,29.4412,-92.0613,19.21,11111222 
WAVCIS,ioos:station:WAVCIS:CSI03:1,2009-04-08T17:00:00Z,29.4412,-92.0613,19.4,11111222 
WAVCIS,ioos:station:WAVCIS:CSI03:1,2009-04-08T18:00:00Z,29.4412,-92.0613,19.51,11111222 
WAVCIS,ioos:station:WAVCIS:CSI03:1,2009-04-08T19:00:00Z,29.4412,-92.0613,19.76,11111222 
WAVCIS,ioos:station:WAVCIS:CSI03:1,2009-04-08T20:00:00Z,29.4412,-92.0613,20.1,11111222 
WAVCIS,ioos:station:WAVCIS:CSI03:1,2009-04-08T21:00:00Z,29.4412,-92.0613,20.2,11111222 
WAVCIS,ioos:station:WAVCIS:CSI03:1,2009-04-08T22:00:00Z,29.4412,-92.0613,20.28,11111222 
WAVCIS,ioos:station:WAVCIS:CSI03:1,2009-04-08T23:00:00Z,29.4412,-92.0613,20.93,11111222 
WAVCIS,ioos:station:WAVCIS:CSI03:1,2009-04-09T00:00:00Z,29.4412,-92.0613,20.68,11111222 
WAVCIS,ioos:station:WAVCIS:CSI03:1,2009-04-09T01:00:00Z,29.4412,-92.0613,19.88,11111222 
WAVCIS,ioos:station:WAVCIS:CSI03:1,2009-04-09T02:00:00Z,29.4412,-92.0613,19.73,11111222 
WAVCIS,ioos:station:WAVCIS:CSI03:1,2009-04-09T03:00:00Z,29.4412,-92.0613,19.91,11111222 
WAVCIS,ioos:station:WAVCIS:CSI03:1,2009-04-09T04:00:00Z,29.4412,-92.0613,19.61,11111222 
WAVCIS,ioos:station:WAVCIS:CSI03:1,2009-04-09T05:00:00Z,29.4412,-92.0613,19.92,11111222 
WAVCIS,ioos:station:WAVCIS:CSI03:1,2009-04-09T06:00:00Z,29.4412,-92.0613,20.07,11111222 
WAVCIS,ioos:station:WAVCIS:CSI03:1,2009-04-09T07:00:00Z,29.4412,-92.0613,19.9,11111222 
WAVCIS,ioos:station:WAVCIS:CSI03:1,2009-04-09T08:00:00Z,29.4412,-92.0613,19.88,11111222 
WAVCIS,ioos:station:WAVCIS:CSI03:1,2009-04-09T09:00:00Z,29.4412,-92.0613,20.34,11111222 
WAVCIS,ioos:station:WAVCIS:CSI03:1,2009-04-09T10:00:00Z,29.4412,-92.0613,20.64,11111222 
WAVCIS,ioos:station:WAVCIS:CSI03:1,2009-04-09T11:00:00Z,29.4412,-92.0613,20.43,11111222 
WAVCIS,ioos:station:WAVCIS:CSI03:1,2009-04-09T12:00:00Z,29.4412,-92.0613,20.57,11111222 
WAVCIS,ioos:station:WAVCIS:CSI03:1,2009-04-09T13:00:00Z,29.4412,-92.0613,21.41,11111222 
WAVCIS,ioos:station:WAVCIS:CSI03:1,2009-04-09T14:00:00Z,29.4412,-92.0613,20.82,11111222 
WAVCIS,ioos:station:WAVCIS:CSI03:1,2009-04-09T15:00:00Z,29.4412,-92.0613,21.13,11111222 
WAVCIS,ioos:station:WAVCIS:CSI03:1,2009-04-09T16:00:00Z,29.4412,-92.0613,21.18,11111222 
WAVCIS,ioos:station:WAVCIS:CSI03:1,2009-04-09T17:00:00Z,29.4412,-92.0613,20.9,11111222 
WAVCIS,ioos:station:WAVCIS:CSI03:1,2009-04-09T18:00:00Z,29.4412,-92.0613,23.16,11111222 
WAVCIS,ioos:station:WAVCIS:CSI03:1,2009-04-09T19:00:00Z,29.4412,-92.0613,22.79,11111222 
WAVCIS,ioos:station:WAVCIS:CSI03:1,2009-04-09T20:00:00Z,29.4412,-92.0613,22.65,11111222 
WAVCIS,ioos:station:WAVCIS:CSI03:1,2009-04-09T21:00:00Z,29.4412,-92.0613,20.67,11111222 
WAVCIS,ioos:station:WAVCIS:CSI03:1,2009-04-09T22:00:00Z,29.4412,-92.0613,21.11,11111222 
WAVCIS,ioos:station:WAVCIS:CSI03:1,2009-04-09T23:00:00Z,29.4412,-92.0613,20.6,11111222 
WAVCIS,ioos:station:WAVCIS:CSI03:1,2009-04-10T00:00:00Z,29.4412,-92.0613,20.54,11111222 
WAVCIS,ioos:station:WAVCIS:CSI03:1,2009-04-10T01:00:00Z,29.4412,-92.0613,21.89,11111222 
WAVCIS,ioos:station:WAVCIS:CSI03:1,2009-04-10T02:00:00Z,29.4412,-92.0613,21.82,11111222 
WAVCIS,ioos:station:WAVCIS:CSI03:1,2009-04-10T03:00:00Z,29.4412,-92.0613,23.23,11111222 
WAVCIS,ioos:station:WAVCIS:CSI03:1,2009-04-10T04:00:00Z,29.4412,-92.0613,21.47,11111222 
WAVCIS,ioos:station:WAVCIS:CSI03:1,2009-04-10T05:00:00Z,29.4412,-92.0613,21.54,11111222 
WAVCIS,ioos:station:WAVCIS:CSI03:1,2009-04-10T06:00:00Z,29.4412,-92.0613,21.82,11111222 
WAVCIS,ioos:station:WAVCIS:CSI03:1,2009-04-10T07:00:00Z,29.4412,-92.0613,21.86,11111222 
WAVCIS,ioos:station:WAVCIS:CSI03:1,2009-04-10T08:00:00Z,29.4412,-92.0613,21.98,11111222 
WAVCIS,ioos:station:WAVCIS:CSI03:1,2009-04-10T09:00:00Z,29.4412,-92.0613,21.85,11111222 
WAVCIS,ioos:station:WAVCIS:CSI03:1,2009-04-10T10:00:00Z,29.4412,-92.0613,21.61,11111222 
WAVCIS,ioos:station:WAVCIS:CSI03:1,2009-04-10T11:00:00Z,29.4412,-92.0613,21.13,11111222 
WAVCIS,ioos:station:WAVCIS:CSI03:1,2009-04-10T12:00:00Z,29.4412,-92.0613,20.62,11111222 
WAVCIS,ioos:station:WAVCIS:CSI03:1,2009-04-10T13:00:00Z,29.4412,-92.0613,20.42,11111222 
WAVCIS,ioos:station:WAVCIS:CSI03:1,2009-04-10T14:00:00Z,29.4412,-92.0613,20.72,11111222 
WAVCIS,ioos:station:WAVCIS:CSI03:1,2009-04-10T15:00:00Z,29.4412,-92.0613,20.6,11111222 
WAVCIS,ioos:station:WAVCIS:CSI03:1,2009-04-10T16:00:00Z,29.4412,-92.0613,20.83,11111222 
WAVCIS,ioos:station:WAVCIS:CSI03:1,2009-04-10T17:00:00Z,29.4412,-92.0613,21.05,11111222 
WAVCIS,ioos:station:WAVCIS:CSI03:1,2009-04-10T18:00:00Z,29.4412,-92.0613,21.55,11111222 
WAVCIS,ioos:station:WAVCIS:CSI03:1,2009-04-10T19:00:00Z,29.4412,-92.0613,22.24,11111222 
WAVCIS,ioos:station:WAVCIS:CSI03:1,2009-04-10T20:00:00Z,29.4412,-92.0613,21.98,11111222 
WAVCIS,ioos:station:WAVCIS:CSI03:1,2009-04-10T21:00:00Z,29.4412,-92.0613,24.37,11111222 
WAVCIS,ioos:station:WAVCIS:CSI03:1,2009-04-10T22:00:00Z,29.4412,-92.0613,23.84,11111222 
WAVCIS,ioos:station:WAVCIS:CSI03:1,2009-04-10T23:00:00Z,29.4412,-92.0613,22.57,11111222 
WAVCIS,ioos:station:WAVCIS:CSI03:1,2009-04-11T00:00:00Z,29.4412,-92.0613,22.38,11111222 
WAVCIS,ioos:station:WAVCIS:CSI03:1,2009-04-11T01:00:00Z,29.4412,-92.0613,22.21,11111222 
WAVCIS,ioos:station:WAVCIS:CSI03:1,2009-04-11T02:00:00Z,29.4412,-92.0613,22.31,11111222 
WAVCIS,ioos:station:WAVCIS:CSI03:1,2009-04-11T03:00:00Z,29.4412,-92.0613,22.27,11111222 
WAVCIS,ioos:station:WAVCIS:CSI03:1,2009-04-11T04:00:00Z,29.4412,-92.0613,21.78,11111222 
WAVCIS,ioos:station:WAVCIS:CSI03:1,2009-04-11T05:00:00Z,29.4412,-92.0613,21.29,11111222 
WAVCIS,ioos:station:WAVCIS:CSI03:1,2009-04-11T06:00:00Z,29.4412,-92.0613,21.3,11111222 
WAVCIS,ioos:station:WAVCIS:CSI03:1,2009-04-11T07:00:00Z,29.4412,-92.0613,21.11,11111222 
WAVCIS,ioos:station:WAVCIS:CSI03:1,2009-04-11T08:00:00Z,29.4412,-92.0613,20.68,11111222 
WAVCIS,ioos:station:WAVCIS:CSI03:1,2009-04-11T09:00:00Z,29.4412,-92.0613,20.0,11111222 
WAVCIS,ioos:station:WAVCIS:CSI03:1,2009-04-11T10:00:00Z,29.4412,-92.0613,19.47,11111222 
WAVCIS,ioos:station:WAVCIS:CSI03:1,2009-04-11T11:00:00Z,29.4412,-92.0613,19.04,11111222 
WAVCIS,ioos:station:WAVCIS:CSI03:1,2009-04-11T12:00:00Z,29.4412,-92.0613,18.65,11111222 
WAVCIS,ioos:station:WAVCIS:CSI03:1,2009-04-11T13:00:00Z,29.4412,-92.0613,18.16,11111222 
WAVCIS,ioos:station:WAVCIS:CSI03:1,2009-04-11T14:00:00Z,29.4412,-92.0613,18.23,11111222 
WAVCIS,ioos:station:WAVCIS:CSI03:1,2009-04-11T15:00:00Z,29.4412,-92.0613,18.14,11111222 
WAVCIS,ioos:station:WAVCIS:CSI03:1,2009-04-11T16:00:00Z,29.4412,-92.0613,18.5,11111222 
WAVCIS,ioos:station:WAVCIS:CSI03:1,2009-04-11T17:00:00Z,29.4412,-92.0613,19.51,11111222 
WAVCIS,ioos:station:WAVCIS:CSI03:1,2009-04-11T18:00:00Z,29.4412,-92.0613,19.86,11111222 
WAVCIS,ioos:station:WAVCIS:CSI03:1,2009-04-11T19:00:00Z,29.4412,-92.0613,20.28,11111222 
WAVCIS,ioos:station:WAVCIS:CSI03:1,2009-04-11T20:00:00Z,29.4412,-92.0613,21.28,11111222 
WAVCIS,ioos:station:WAVCIS:CSI03:1,2009-04-11T21:00:00Z,29.4412,-92.0613,21.4,11111222 
WAVCIS,ioos:station:WAVCIS:CSI03:1,2009-04-11T22:00:00Z,29.4412,-92.0613,21.3,11111222 
WAVCIS,ioos:station:WAVCIS:CSI03:1,2009-04-11T23:00:00Z,29.4412,-92.0613,20.83,11111222 
WAVCIS,ioos:station:WAVCIS:CSI03:1,2009-04-12T00:00:00Z,29.4412,-92.0613,21.12,11111222 
WAVCIS,ioos:station:WAVCIS:CSI03:1,2009-04-12T01:00:00Z,29.4412,-92.0613,21.41,11111222 
WAVCIS,ioos:station:WAVCIS:CSI03:1,2009-04-12T02:00:00Z,29.4412,-92.0613,21.28,11111222 
WAVCIS,ioos:station:WAVCIS:CSI03:1,2009-04-12T03:00:00Z,29.4412,-92.0613,21.05,11111222 
WAVCIS,ioos:station:WAVCIS:CSI03:1,2009-04-12T04:00:00Z,29.4412,-92.0613,20.47,11111222 